{"data":{"norad_id":55447,"epoch":"2026-09-21T04:22:51.170880Z","epoch_age_seconds":112252,"freshness":"FRESH","line1":"1 55447U 23005C   26264.18253670  .00000033  00000+0  50650-2 0  9990","line2":"2 55447  28.6272 159.5512 2271910 113.1414 272.3544  7.60567958101179","mean_motion":7.60567958,"eccentricity":0.227191,"inclination_deg":28.6272,"raan_deg":159.5512,"arg_perigee_deg":113.1414,"mean_anomaly_deg":272.3544,"bstar":0.005065,"rev_number":10117,"period_min":189.33219377091,"perigee_km":2062.631626036,"apogee_km":7025.4792764069,"semimajor_km":10922.192451221,"source":"CELESTRAK","updated_at":"2026-09-22T09:00:25.411618Z"}}